Location: Bogis-Bossey
(46.3500°N, 6.1667°E)
Time: 17:58:24
(UTC+00:00)

CZ-2C R/B - Pass Details

Date: 17 August 2022
Orbit: 640 x 702 km, 98.3° (Epoch: 01 October)

Event Time Altitude Azimuth Distance (km) Brightness Sun altitude
Rises 21:43:31 0° 9° (N) 2,984 7.8 -25.0°
Reaches altitude 10° 21:45:45 10° 6° (N) 2,077 6.9 -25.2°
Maximum altitude 21:50:11 57° 289° (WNW) 787 4.2 -25.6°
Enters shadow 21:50:57 49° 249° (WSW) 856 4.2 -25.7°
